owner,sensor,date,latitude,longitude,vertical_datum,direction_of_sea_water_velocity,sea_water_speed,upward_sea_water_velocity,qcFlag 
ADCP,ioos:station:wmo:42387:1,2015-06-01T00:23:00Z,28.2670,-88.3990,79.7,28.0,5.3,-3.7,'1111122,1111122,1111122' 
ADCP,ioos:station:wmo:42387:1,2015-06-01T02:16:00Z,28.2670,-88.3990,79.7,15.0,6.7,-3.8,'1111122,1111122,1111122' 
ADCP,ioos:station:wmo:42387:1,2015-06-01T02:56:00Z,28.2670,-88.3990,79.7,4.0,8.9,-5.4,'1111122,1111122,1111122' 
ADCP,ioos:station:wmo:42387:1,2015-06-01T04:04:00Z,28.2670,-88.3990,79.7,342.0,2.0,-2.6,'1111122,1111122,1111122' 
ADCP,ioos:station:wmo:42387:1,2015-06-01T05:04:00Z,28.2670,-88.3990,79.7,6.0,0.9,-3.0,'1111122,1111122,1111122' 
ADCP,ioos:station:wmo:42387:1,2015-06-01T06:04:00Z,28.2670,-88.3990,79.7,289.0,2.1,-4.2,'1111122,1111122,1111122' 
ADCP,ioos:station:wmo:42387:1,2015-06-01T06:24:00Z,28.2670,-88.3990,79.7,322.0,2.4,-4.4,'1111122,1111122,1111122' 
ADCP,ioos:station:wmo:42387:1,2015-06-01T09:04:00Z,28.2670,-88.3990,79.7,290.0,5.6,-4.5,'1111122,1111122,1111122' 
ADCP,ioos:station:wmo:42387:1,2015-06-01T09:24:00Z,28.2670,-88.3990,79.7,306.0,5.7,-5.6,'1111122,1111122,1111122' 
ADCP,ioos:station:wmo:42387:1,2015-06-01T12:12:00Z,28.2670,-88.3990,79.7,346.0,11.9,-8.0,'1111122,1111122,1111122' 
ADCP,ioos:station:wmo:42387:1,2015-06-01T13:12:00Z,28.2670,-88.3990,79.7,350.0,12.4,-7.7,'1111122,1111122,1111122' 
ADCP,ioos:station:wmo:42387:1,2015-06-01T14:12:00Z,28.2670,-88.3990,79.7,3.0,10.1,-6.3,'1111122,1111122,1111122' 
ADCP,ioos:station:wmo:42387:1,2015-06-01T15:12:00Z,28.2670,-88.3990,79.7,13.0,8.5,-4.9,'1111122,1111122,1111122' 
ADCP,ioos:station:wmo:42387:1,2015-06-01T16:12:00Z,28.2670,-88.3990,79.7,8.0,5.9,-2.5,'1111122,1111122,1111122' 
ADCP,ioos:station:wmo:42387:1,2015-06-01T17:12:00Z,28.2670,-88.3990,79.7,19.0,5.2,-2.9,'1111122,1111122,1111122' 
ADCP,ioos:station:wmo:42387:1,2015-06-01T18:12:00Z,28.2670,-88.3990,79.7,45.0,3.3,-1.6,'1111122,1111122,1111122' 
ADCP,ioos:station:wmo:42387:1,2015-06-01T19:12:00Z,28.2670,-88.3990,79.7,111.0,4.9,-1.1,'1111122,1111122,1111122' 
ADCP,ioos:station:wmo:42387:1,2015-06-01T20:12:00Z,28.2670,-88.3990,79.7,86.0,3.1,-1.8,'1111122,1111122,1111122' 
ADCP,ioos:station:wmo:42387:1,2015-06-01T21:12:00Z,28.2670,-88.3990,79.7,114.0,2.4,-0.4,'1111122,1111122,1111122' 
ADCP,ioos:station:wmo:42387:1,2015-06-01T23:12:00Z,28.2670,-88.3990,79.7,132.0,2.4,-2.9,'1111122,1111122,1111122' 
ADCP,ioos:station:wmo:42387:1,2015-06-02T00:12:00Z,28.2670,-88.3990,79.7,41.0,1.8,-4.7,'1111122,1111122,1111122' 
ADCP,ioos:station:wmo:42387:1,2015-06-02T01:12:00Z,28.2670,-88.3990,79.7,316.0,4.0,-5.5,'1111122,1111122,1111122' 
ADCP,ioos:station:wmo:42387:1,2015-06-02T02:12:00Z,28.2670,-88.3990,79.7,323.0,6.1,-5.5,'1111122,1111122,1111122' 
ADCP,ioos:station:wmo:42387:1,2015-06-02T03:12:00Z,28.2670,-88.3990,79.7,345.0,9.5,-5.7,'1111122,1111122,1111122' 
ADCP,ioos:station:wmo:42387:1,2015-06-02T04:12:00Z,28.2670,-88.3990,79.7,340.0,6.7,-5.4,'1111122,1111122,1111122' 
ADCP,ioos:station:wmo:42387:1,2015-06-02T05:12:00Z,28.2670,-88.3990,79.7,319.0,7.3,-5.4,'1111122,1111122,1111122' 
ADCP,ioos:station:wmo:42387:1,2015-06-02T05:52:00Z,28.2670,-88.3990,79.7,332.0,11.0,-6.4,'1111122,1111122,1111122' 
ADCP,ioos:station:wmo:42387:1,2015-06-02T09:12:00Z,28.2670,-88.3990,79.7,331.0,13.1,-6.3,'1111122,1111122,1111122' 
ADCP,ioos:station:wmo:42387:1,2015-06-02T10:12:00Z,28.2670,-88.3990,79.7,334.0,13.1,-6.3,'1111122,1111122,1111122' 
ADCP,ioos:station:wmo:42387:1,2015-06-02T11:12:00Z,28.2670,-88.3990,79.7,349.0,7.9,-4.8,'1111122,1111122,1111122' 
ADCP,ioos:station:wmo:42387:1,2015-06-02T12:12:00Z,28.2670,-88.3990,79.7,347.0,5.7,-4.7,'1111122,1111122,1111122' 
ADCP,ioos:station:wmo:42387:1,2015-06-02T13:12:00Z,28.2670,-88.3990,79.7,323.0,4.3,-4.7,'1111122,1111122,1111122' 
ADCP,ioos:station:wmo:42387:1,2015-06-02T14:12:00Z,28.2670,-88.3990,79.7,331.0,4.6,-4.1,'1111122,1111122,1111122' 
ADCP,ioos:station:wmo:42387:1,2015-06-02T15:12:00Z,28.2670,-88.3990,79.7,315.0,2.8,-3.4,'1111122,1111122,1111122' 
ADCP,ioos:station:wmo:42387:1,2015-06-02T18:12:00Z,28.2670,-88.3990,79.7,289.0,2.4,-2.6,'1111122,1111122,1111122' 
ADCP,ioos:station:wmo:42387:1,2015-06-02T19:12:00Z,28.2670,-88.3990,79.7,205.0,2.6,-1.7,'1111122,1111122,1111122' 
ADCP,ioos:station:wmo:42387:1,2015-06-02T20:12:00Z,28.2670,-88.3990,79.7,201.0,3.9,-3.2,'1111122,1111122,1111122' 
ADCP,ioos:station:wmo:42387:1,2015-06-02T21:12:00Z,28.2670,-88.3990,79.7,225.0,3.7,-2.6,'1111122,1111122,1111122' 
ADCP,ioos:station:wmo:42387:1,2015-06-02T22:12:00Z,28.2670,-88.3990,79.7,211.0,4.2,-2.4,'1111122,1111122,1111122' 
ADCP,ioos:station:wmo:42387:1,2015-06-02T23:12:00Z,28.2670,-88.3990,79.7,251.0,3.7,-3.2,'1111122,1111122,1111122' 
ADCP,ioos:station:wmo:42387:1,2015-06-03T00:12:00Z,28.2670,-88.3990,79.7,239.0,4.1,-4.1,'1111122,1111122,1111122' 
ADCP,ioos:station:wmo:42387:1,2015-06-03T01:12:00Z,28.2670,-88.3990,79.7,270.0,8.2,-6.3,'1111122,1111122,1111122' 
ADCP,ioos:station:wmo:42387:1,2015-06-03T02:12:00Z,28.2670,-88.3990,79.7,292.0,7.1,-5.1,'1111122,1111122,1111122' 
ADCP,ioos:station:wmo:42387:1,2015-06-03T03:12:00Z,28.2670,-88.3990,79.7,299.0,7.4,-4.8,'1111122,1111122,1111122' 
ADCP,ioos:station:wmo:42387:1,2015-06-03T04:12:00Z,28.2670,-88.3990,79.7,300.0,7.8,-4.8,'1111122,1111122,1111122' 
ADCP,ioos:station:wmo:42387:1,2015-06-03T05:12:00Z,28.2670,-88.3990,79.7,322.0,12.5,-6.5,'1111122,1111122,1111122' 
ADCP,ioos:station:wmo:42387:1,2015-06-03T05:52:00Z,28.2670,-88.3990,79.7,303.0,8.0,-5.8,'1111122,1111122,1111122' 
ADCP,ioos:station:wmo:42387:1,2015-06-03T09:12:00Z,28.2670,-88.3990,79.7,297.0,10.3,-4.6,'1111122,1111122,1111122' 
ADCP,ioos:station:wmo:42387:1,2015-06-03T10:12:00Z,28.2670,-88.3990,79.7,318.0,7.7,-5.8,'1111122,1111122,1111122' 
ADCP,ioos:station:wmo:42387:1,2015-06-03T11:12:00Z,28.2670,-88.3990,79.7,312.0,3.1,-5.5,'1111122,1111122,1111122' 
ADCP,ioos:station:wmo:42387:1,2015-06-03T12:12:00Z,28.2670,-88.3990,79.7,233.0,3.0,-4.3,'1111122,1111122,1111122' 
ADCP,ioos:station:wmo:42387:1,2015-06-03T12:52:00Z,28.2670,-88.3990,79.7,235.0,4.4,-4.0,'1111122,1111122,1111122' 
ADCP,ioos:station:wmo:42387:1,2015-06-03T14:12:00Z,28.2670,-88.3990,79.7,251.0,5.6,-4.3,'1111122,1111122,1111122' 
ADCP,ioos:station:wmo:42387:1,2015-06-03T15:12:00Z,28.2670,-88.3990,79.7,264.0,5.3,-2.8,'1111122,1111122,1111122' 
ADCP,ioos:station:wmo:42387:1,2015-06-03T16:12:00Z,28.2670,-88.3990,79.7,256.0,5.6,-2.1,'1111122,1111122,1111122' 
ADCP,ioos:station:wmo:42387:1,2015-06-03T17:12:00Z,28.2670,-88.3990,79.7,258.0,6.0,-1.8,'1111122,1111122,1111122' 
ADCP,ioos:station:wmo:42387:1,2015-06-03T18:12:00Z,28.2670,-88.3990,79.7,303.0,5.5,-2.7,'1111122,1111122,1111122' 
ADCP,ioos:station:wmo:42387:1,2015-06-03T19:12:00Z,28.2670,-88.3990,79.7,307.0,6.5,-3.6,'1111122,1111122,1111122' 
ADCP,ioos:station:wmo:42387:1,2015-06-03T20:12:00Z,28.2670,-88.3990,79.7,310.0,8.8,-3.8,'1111122,1111122,1111122' 
ADCP,ioos:station:wmo:42387:1,2015-06-03T21:12:00Z,28.2670,-88.3990,79.8,316.0,6.8,-2.8,'1111122,1111122,1111122' 
ADCP,ioos:station:wmo:42387:1,2015-06-03T22:12:00Z,28.2670,-88.3990,79.7,322.0,5.8,-3.8,'1111122,1111122,1111122' 
ADCP,ioos:station:wmo:42387:1,2015-06-03T23:12:00Z,28.2670,-88.3990,79.7,309.0,3.2,-3.4,'1111122,1111122,1111122' 
ADCP,ioos:station:wmo:42387:1,2015-06-04T00:12:00Z,28.2670,-88.3990,79.7,290.0,3.3,-3.8,'1111122,1111122,1111122' 
ADCP,ioos:station:wmo:42387:1,2015-06-04T01:12:00Z,28.2670,-88.3990,79.7,286.0,7.3,-5.7,'1111122,1111122,1111122' 
ADCP,ioos:station:wmo:42387:1,2015-06-04T02:12:00Z,28.2670,-88.3990,79.7,254.0,4.6,-3.2,'1111122,1111122,1111122' 
ADCP,ioos:station:wmo:42387:1,2015-06-04T03:12:00Z,28.2670,-88.3990,79.7,243.0,7.5,-3.7,'1111122,1111122,1111122' 
ADCP,ioos:station:wmo:42387:1,2015-06-04T04:12:00Z,28.2670,-88.3990,79.7,277.0,8.1,-4.5,'1111122,1111122,1111122' 
ADCP,ioos:station:wmo:42387:1,2015-06-04T05:12:00Z,28.2670,-88.3990,79.7,273.0,7.9,-4.7,'1111122,1111122,1111122' 
ADCP,ioos:station:wmo:42387:1,2015-06-04T05:52:00Z,28.2670,-88.3990,79.7,275.0,6.8,-5.3,'1111122,1111122,1111122' 
ADCP,ioos:station:wmo:42387:1,2015-06-04T09:12:00Z,28.2670,-88.3990,79.7,286.0,10.2,-5.6,'1111122,1111122,1111122' 
ADCP,ioos:station:wmo:42387:1,2015-06-04T10:12:00Z,28.2670,-88.3990,79.7,271.0,7.5,-4.7,'1111122,1111122,1111122' 
ADCP,ioos:station:wmo:42387:1,2015-06-04T11:12:00Z,28.2670,-88.3990,79.7,302.0,6.4,-4.7,'1111122,1111122,1111122' 
ADCP,ioos:station:wmo:42387:1,2015-06-04T12:12:00Z,28.2670,-88.3990,79.7,297.0,5.9,-6.2,'1111122,1111122,1111122' 
ADCP,ioos:station:wmo:42387:1,2015-06-04T13:12:00Z,28.2670,-88.3990,79.7,274.0,6.4,-5.2,'1111122,1111122,1111122' 
ADCP,ioos:station:wmo:42387:1,2015-06-04T14:12:00Z,28.2670,-88.3990,79.7,306.0,8.7,-6.0,'1111122,1111122,1111122' 
ADCP,ioos:station:wmo:42387:1,2015-06-04T15:12:00Z,28.2670,-88.3990,79.7,288.0,6.3,-4.7,'1111122,1111122,1111122' 
ADCP,ioos:station:wmo:42387:1,2015-06-04T16:12:00Z,28.2670,-88.3990,79.7,317.0,5.0,-3.8,'1111122,1111122,1111122' 
ADCP,ioos:station:wmo:42387:1,2015-06-04T17:12:00Z,28.2670,-88.3990,79.7,304.0,7.6,-3.6,'1111122,1111122,1111122' 
ADCP,ioos:station:wmo:42387:1,2015-06-04T18:12:00Z,28.2670,-88.3990,79.7,324.0,6.0,-4.3,'1111122,1111122,1111122' 
ADCP,ioos:station:wmo:42387:1,2015-06-04T19:12:00Z,28.2670,-88.3990,79.7,290.0,2.9,-3.1,'1111122,1111122,1111122' 
ADCP,ioos:station:wmo:42387:1,2015-06-04T20:12:00Z,28.2670,-88.3990,79.7,310.0,4.2,-2.1,'1111122,1111122,1111122' 
ADCP,ioos:station:wmo:42387:1,2015-06-04T21:12:00Z,28.2670,-88.3990,79.8,285.0,2.0,-1.7,'1111122,1111122,1111122' 
ADCP,ioos:station:wmo:42387:1,2015-06-05T14:02:00Z,28.2670,-88.3990,79.7,319.0,4.3,-2.5,'1111122,1111122,1111122' 
ADCP,ioos:station:wmo:42387:1,2015-06-05T15:02:00Z,28.2670,-88.3990,79.7,333.0,3.5,-1.6,'1111122,1111122,1111122' 
ADCP,ioos:station:wmo:42387:1,2015-06-05T16:02:00Z,28.2670,-88.3990,79.7,321.0,4.0,-2.8,'1111122,1111122,1111122' 
ADCP,ioos:station:wmo:42387:1,2015-06-05T17:02:00Z,28.2670,-88.3990,79.7,356.0,3.0,-1.1,'1111122,1111122,1111122' 
ADCP,ioos:station:wmo:42387:1,2015-06-05T18:02:00Z,28.2670,-88.3990,79.7,353.0,4.7,-0.8,'1111122,1111122,1111122' 
ADCP,ioos:station:wmo:42387:1,2015-06-05T19:02:00Z,28.2670,-88.3990,79.7,17.0,5.4,-0.8,'1111122,1111122,1111122' 
ADCP,ioos:station:wmo:42387:1,2015-06-05T20:02:00Z,28.2670,-88.3990,79.7,52.0,4.8,0.0,'1111122,1111122,1114422' 
ADCP,ioos:station:wmo:42387:1,2015-06-05T20:42:00Z,28.2670,-88.3990,79.7,43.0,6.0,-2.2,'1111122,1111122,1111122' 
ADCP,ioos:station:wmo:42387:1,2015-06-05T22:02:00Z,28.2670,-88.3990,79.8,70.0,5.3,-1.6,'1111122,1111122,1111122' 
ADCP,ioos:station:wmo:42387:1,2015-06-05T23:02:00Z,28.2670,-88.3990,79.7,82.0,5.5,-1.7,'1111122,1111122,1111122' 
ADCP,ioos:station:wmo:42387:1,2015-06-06T00:02:00Z,28.2670,-88.3990,79.7,134.0,5.7,-0.1,'1111122,1111122,1111122' 
ADCP,ioos:station:wmo:42387:1,2015-06-06T01:02:00Z,28.2670,-88.3990,79.7,97.0,2.5,-2.8,'1111122,1111122,1111122' 
ADCP,ioos:station:wmo:42387:1,2015-06-06T02:02:00Z,28.2670,-88.3990,79.7,73.0,1.4,-3.6,'1111122,1111122,1111122' 
ADCP,ioos:station:wmo:42387:1,2015-06-06T03:02:00Z,28.2670,-88.3990,79.7,142.0,2.9,-3.1,'1111122,1111122,1111122' 
ADCP,ioos:station:wmo:42387:1,2015-06-06T04:02:00Z,28.2670,-88.3990,79.7,191.0,5.6,-1.4,'1111122,1111122,1111122' 
ADCP,ioos:station:wmo:42387:1,2015-06-06T05:42:00Z,28.2670,-88.3990,79.7,301.0,5.7,-3.4,'1111122,1111122,1111122' 
ADCP,ioos:station:wmo:42387:1,2015-06-06T06:22:00Z,28.2670,-88.3990,79.7,319.0,8.9,-4.5,'1111122,1111122,1111122' 
ADCP,ioos:station:wmo:42387:1,2015-06-06T08:02:00Z,28.2670,-88.3990,79.7,316.0,8.7,-3.6,'1111122,1111122,1111122' 
ADCP,ioos:station:wmo:42387:1,2015-06-06T09:02:00Z,28.2670,-88.3990,79.7,322.0,11.3,-4.3,'1111122,1111122,1111122' 
ADCP,ioos:station:wmo:42387:1,2015-06-06T10:02:00Z,28.2670,-88.3990,79.7,335.0,13.6,-5.2,'1111122,1111122,1111122' 
ADCP,ioos:station:wmo:42387:1,2015-06-06T11:02:00Z,28.2670,-88.3990,79.7,351.0,7.5,-4.6,'1111122,1111122,1111122' 
ADCP,ioos:station:wmo:42387:1,2015-06-06T12:02:00Z,28.2670,-88.3990,79.7,349.0,6.6,-2.9,'1111122,1111122,1111122' 
ADCP,ioos:station:wmo:42387:1,2015-06-06T13:02:00Z,28.2670,-88.3990,79.7,357.0,6.6,-3.4,'1111122,1111122,1111122' 
ADCP,ioos:station:wmo:42387:1,2015-06-06T14:02:00Z,28.2670,-88.3990,79.7,355.0,8.1,-4.2,'1111122,1111122,1111122' 
ADCP,ioos:station:wmo:42387:1,2015-06-06T15:02:00Z,28.2670,-88.3990,79.7,34.0,6.0,-2.6,'1111122,1111122,1111122' 
ADCP,ioos:station:wmo:42387:1,2015-06-06T16:02:00Z,28.2670,-88.3990,79.7,26.0,5.9,-3.8,'1111122,1111122,1111122' 
ADCP,ioos:station:wmo:42387:1,2015-06-06T17:02:00Z,28.2670,-88.3990,79.7,6.0,9.0,-4.5,'1111122,1111122,1111122' 
ADCP,ioos:station:wmo:42387:1,2015-06-06T18:02:00Z,28.2670,-88.3990,79.7,14.0,8.2,-3.6,'1111122,1111122,1111122' 
ADCP,ioos:station:wmo:42387:1,2015-06-06T19:02:00Z,28.2670,-88.3990,79.7,58.0,7.5,-2.3,'1111122,1111122,1111122' 
ADCP,ioos:station:wmo:42387:1,2015-06-06T20:02:00Z,28.2670,-88.3990,79.7,52.0,7.8,-3.3,'1111122,1111122,1111122' 
ADCP,ioos:station:wmo:42387:1,2015-06-06T21:02:00Z,28.2670,-88.3990,79.7,56.0,6.1,-2.7,'1111122,1111122,1111122' 
ADCP,ioos:station:wmo:42387:1,2015-06-06T22:02:00Z,28.2670,-88.3990,79.7,73.0,7.2,-3.1,'1111122,1111122,1111122' 
ADCP,ioos:station:wmo:42387:1,2015-06-06T23:02:00Z,28.2670,-88.3990,79.7,83.0,6.4,-2.5,'1111122,1111122,1111122' 
ADCP,ioos:station:wmo:42387:1,2015-06-07T00:02:00Z,28.2670,-88.3990,79.7,111.0,8.2,0.4,'1111122,1111122,1111122' 
ADCP,ioos:station:wmo:42387:1,2015-06-07T01:02:00Z,28.2670,-88.3990,79.7,116.0,9.7,-3.0,'1111122,1111122,1111122' 
ADCP,ioos:station:wmo:42387:1,2015-06-07T02:02:00Z,28.2670,-88.3990,79.7,133.0,7.5,-4.2,'1111122,1111122,1111122' 
ADCP,ioos:station:wmo:42387:1,2015-06-07T03:02:00Z,28.2670,-88.3990,79.7,152.0,6.9,-5.6,'1111122,1111122,1111122' 
ADCP,ioos:station:wmo:42387:1,2015-06-07T04:02:00Z,28.2670,-88.3990,79.7,243.0,3.5,-7.3,'1111122,1111122,1111122' 
ADCP,ioos:station:wmo:42387:1,2015-06-07T05:02:00Z,28.2670,-88.3990,79.7,285.0,7.3,-8.4,'1111122,1111122,1111122' 
ADCP,ioos:station:wmo:42387:1,2015-06-07T06:02:00Z,28.2670,-88.3990,79.7,320.0,9.7,-7.1,'1111122,1111122,1111122' 
ADCP,ioos:station:wmo:42387:1,2015-06-07T09:02:00Z,28.2670,-88.3990,79.7,317.0,12.3,-6.7,'1111122,1111122,1111122' 
ADCP,ioos:station:wmo:42387:1,2015-06-07T10:02:00Z,28.2670,-88.3990,79.7,343.0,12.7,-6.0,'1111122,1111122,1111122' 
ADCP,ioos:station:wmo:42387:1,2015-06-07T11:02:00Z,28.2670,-88.3990,79.7,2.0,10.7,-5.9,'1111122,1111122,1111122' 
ADCP,ioos:station:wmo:42387:1,2015-06-07T12:13:00Z,28.2670,-88.3990,79.7,5.0,14.3,-6.1,'1111122,1111122,1111122' 
ADCP,ioos:station:wmo:42387:1,2015-06-07T13:13:00Z,28.2670,-88.3990,79.7,5.0,12.1,-4.7,'1111122,1111122,1111122' 
ADCP,ioos:station:wmo:42387:1,2015-06-07T14:13:00Z,28.2670,-88.3990,79.7,13.0,14.3,-5.3,'1111122,1111122,1111122' 
ADCP,ioos:station:wmo:42387:1,2015-06-07T15:13:00Z,28.2670,-88.3990,79.7,13.0,11.9,-4.3,'1111122,1111122,1111122' 
ADCP,ioos:station:wmo:42387:1,2015-06-07T16:13:00Z,28.2670,-88.3990,79.7,30.0,10.5,-3.3,'1111122,1111122,1111122' 
ADCP,ioos:station:wmo:42387:1,2015-06-07T18:13:00Z,28.2670,-88.3990,79.7,80.0,8.3,-1.4,'1111122,1111122,1111122' 
ADCP,ioos:station:wmo:42387:1,2015-06-07T19:13:00Z,28.2670,-88.3990,79.7,97.0,7.9,-1.4,'1111122,1111122,1111122' 
ADCP,ioos:station:wmo:42387:1,2015-06-07T20:13:00Z,28.2670,-88.3990,79.7,121.0,9.6,-1.8,'1111122,1111122,1111122' 
ADCP,ioos:station:wmo:42387:1,2015-06-07T21:13:00Z,28.2670,-88.3990,79.7,125.0,10.9,-2.4,'1111122,1111122,1111122' 
ADCP,ioos:station:wmo:42387:1,2015-06-07T22:13:00Z,28.2670,-88.3990,79.7,121.0,6.5,-4.2,'1111122,1111122,1111122' 
ADCP,ioos:station:wmo:42387:1,2015-06-07T23:13:00Z,28.2670,-88.3990,79.7,134.0,6.9,-3.7,'1111122,1111122,1111122' 
ADCP,ioos:station:wmo:42387:1,2015-06-08T00:13:00Z,28.2670,-88.3990,79.7,119.0,5.3,-2.8,'1111122,1111122,1111122' 
ADCP,ioos:station:wmo:42387:1,2015-06-08T01:13:00Z,28.2670,-88.3990,79.7,107.0,3.9,-6.5,'1111122,1111122,1111122' 
ADCP,ioos:station:wmo:42387:1,2015-06-08T02:13:00Z,28.2670,-88.3990,79.7,153.0,1.8,-6.1,'1111122,1111122,1111122' 
ADCP,ioos:station:wmo:42387:1,2015-06-08T03:13:00Z,28.2670,-88.3990,79.7,278.0,0.7,-6.9,'1111122,1111122,1111122' 
ADCP,ioos:station:wmo:42387:1,2015-06-08T05:13:00Z,28.2670,-88.3990,79.7,301.0,6.1,-7.7,'1111122,1111122,1111122' 
ADCP,ioos:station:wmo:42387:1,2015-06-08T06:13:00Z,28.2670,-88.3990,79.7,315.0,9.7,-8.2,'1111122,1111122,1111122' 
ADCP,ioos:station:wmo:42387:1,2015-06-08T06:33:00Z,28.2670,-88.3990,79.7,320.0,12.3,-7.2,'1111122,1111122,1111122' 
ADCP,ioos:station:wmo:42387:1,2015-06-08T08:13:00Z,28.2670,-88.3990,79.7,340.0,12.6,-8.3,'1111122,1111122,1111122' 
ADCP,ioos:station:wmo:42387:1,2015-06-08T09:13:00Z,28.2670,-88.3990,79.7,343.0,13.8,-7.2,'1111122,1111122,1111122' 
ADCP,ioos:station:wmo:42387:1,2015-06-08T10:13:00Z,28.2670,-88.3990,79.7,357.0,13.7,-7.4,'1111122,1111122,1111122' 
ADCP,ioos:station:wmo:42387:1,2015-06-08T11:13:00Z,28.2670,-88.3990,79.7,9.0,11.6,-6.7,'1111122,1111122,1111122' 
ADCP,ioos:station:wmo:42387:1,2015-06-08T12:13:00Z,28.2670,-88.3990,79.7,21.0,12.9,-5.4,'1111122,1111122,1111122' 
ADCP,ioos:station:wmo:42387:1,2015-06-08T13:13:00Z,28.2670,-88.3990,79.7,19.0,17.5,-7.3,'1111122,1111122,1111122' 
ADCP,ioos:station:wmo:42387:1,2015-06-08T14:13:00Z,28.2670,-88.3990,79.7,23.0,12.2,-5.3,'1111122,1111122,1111122' 
ADCP,ioos:station:wmo:42387:1,2015-06-08T15:13:00Z,28.2670,-88.3990,79.7,36.0,13.9,-4.6,'1111122,1111122,1111122' 
ADCP,ioos:station:wmo:42387:1,2015-06-08T16:13:00Z,28.2670,-88.3990,79.7,55.0,12.1,-4.2,'1111122,1111122,1111122' 
ADCP,ioos:station:wmo:42387:1,2015-06-08T17:13:00Z,28.2670,-88.3990,79.7,74.0,9.0,-3.2,'1111122,1111122,1111122' 
ADCP,ioos:station:wmo:42387:1,2015-06-08T18:13:00Z,28.2670,-88.3990,79.7,97.0,9.4,-2.7,'1111122,1111122,1111122' 
ADCP,ioos:station:wmo:42387:1,2015-06-08T19:13:00Z,28.2670,-88.3990,79.7,105.0,9.9,-3.1,'1111122,1111122,1111122' 
ADCP,ioos:station:wmo:42387:1,2015-06-08T20:13:00Z,28.2670,-88.3990,79.7,98.0,7.6,-3.6,'1111122,1111122,1111122' 
ADCP,ioos:station:wmo:42387:1,2015-06-08T21:13:00Z,28.2670,-88.3990,79.7,130.0,7.0,-4.2,'1111122,1111122,1111122' 
ADCP,ioos:station:wmo:42387:1,2015-06-08T21:53:00Z,28.2670,-88.3990,79.7,149.0,10.6,-3.5,'1111122,1111122,1111122' 
ADCP,ioos:station:wmo:42387:1,2015-06-09T13:13:00Z,28.2670,-88.3990,79.7,34.0,12.6,-3.8,'1111122,1111122,1111122' 
ADCP,ioos:station:wmo:42387:1,2015-06-09T14:13:00Z,28.2670,-88.3990,79.7,57.0,9.1,-2.2,'1111122,1111122,1111122' 
ADCP,ioos:station:wmo:42387:1,2015-06-09T15:13:00Z,28.2670,-88.3990,79.7,76.0,6.5,-2.5,'1111122,1111122,1111122' 
ADCP,ioos:station:wmo:42387:1,2015-06-09T16:13:00Z,28.2670,-88.3990,79.7,82.0,6.5,-1.4,'1111122,1111122,1111122' 
ADCP,ioos:station:wmo:42387:1,2015-06-09T18:13:00Z,28.2670,-88.3990,79.7,83.0,6.9,-1.2,'1111122,1111122,1111122' 
ADCP,ioos:station:wmo:42387:1,2015-06-09T19:13:00Z,28.2670,-88.3990,79.7,109.0,8.2,-0.6,'1111122,1111122,1111122' 
ADCP,ioos:station:wmo:42387:1,2015-06-09T20:13:00Z,28.2670,-88.3990,79.7,104.0,9.3,-0.1,'1111122,1111122,1111122' 
ADCP,ioos:station:wmo:42387:1,2015-06-09T21:13:00Z,28.2670,-88.3990,79.7,84.0,7.1,-0.2,'1111122,1111122,1111122' 
ADCP,ioos:station:wmo:42387:1,2015-06-09T22:13:00Z,28.2670,-88.3990,79.7,69.0,6.6,-1.0,'1111122,1111122,1111122' 
ADCP,ioos:station:wmo:42387:1,2015-06-09T23:13:00Z,28.2670,-88.3990,79.7,74.0,8.9,-1.6,'1111122,1111122,1111122' 
ADCP,ioos:station:wmo:42387:1,2015-06-10T00:13:00Z,28.2670,-88.3990,79.7,73.0,11.0,-2.8,'1111122,1111122,1111122' 
ADCP,ioos:station:wmo:42387:1,2015-06-10T01:13:00Z,28.2670,-88.3990,79.7,85.0,8.7,-3.8,'1111122,1111122,1111122' 
ADCP,ioos:station:wmo:42387:1,2015-06-10T02:13:00Z,28.2670,-88.3990,79.7,67.0,5.7,-4.3,'1111122,1111122,1111122' 
ADCP,ioos:station:wmo:42387:1,2015-06-10T03:13:00Z,28.2670,-88.3990,79.7,33.0,7.3,-4.5,'1111122,1111122,1111122' 
ADCP,ioos:station:wmo:42387:1,2015-06-10T04:13:00Z,28.2670,-88.3990,79.7,8.0,8.5,-4.6,'1111122,1111122,1111122' 
ADCP,ioos:station:wmo:42387:1,2015-06-10T05:13:00Z,28.2670,-88.3990,79.7,8.0,12.4,-4.6,'1111122,1111122,1111122' 
ADCP,ioos:station:wmo:42387:1,2015-06-10T06:13:00Z,28.2670,-88.3990,79.7,12.0,19.0,-6.6,'1111122,1111122,1111122' 
ADCP,ioos:station:wmo:42387:1,2015-06-10T06:33:00Z,28.2670,-88.3990,79.7,7.0,19.3,-6.6,'1111122,1111122,1111122' 
ADCP,ioos:station:wmo:42387:1,2015-06-10T08:13:00Z,28.2670,-88.3990,79.8,17.0,21.3,-4.8,'1111122,1111122,1111122' 
ADCP,ioos:station:wmo:42387:1,2015-06-10T09:13:00Z,28.2670,-88.3990,79.8,23.0,22.5,-4.4,'1111122,1111122,1111122' 
ADCP,ioos:station:wmo:42387:1,2015-06-10T10:13:00Z,28.2670,-88.3990,79.8,25.0,20.2,-5.6,'1111122,1111122,1111122' 
ADCP,ioos:station:wmo:42387:1,2015-06-10T11:13:00Z,28.2670,-88.3990,79.8,38.0,13.7,-1.9,'1111122,1111122,1111122' 
ADCP,ioos:station:wmo:42387:1,2015-06-10T12:13:00Z,28.2670,-88.3990,79.8,36.0,16.4,-5.4,'1111122,1111122,1111122' 
ADCP,ioos:station:wmo:42387:1,2015-06-10T13:13:00Z,28.2670,-88.3990,79.8,46.0,14.1,-3.9,'1111122,1111122,1111122' 
ADCP,ioos:station:wmo:42387:1,2015-06-10T14:13:00Z,28.2670,-88.3990,79.7,76.0,10.0,-2.5,'1111122,1111122,1111122' 
ADCP,ioos:station:wmo:42387:1,2015-06-10T15:13:00Z,28.2670,-88.3990,79.7,77.0,9.6,-1.8,'1111122,1111122,1111122' 
ADCP,ioos:station:wmo:42387:1,2015-06-10T16:13:00Z,28.2670,-88.3990,79.7,58.0,8.4,-2.7,'1111122,1111122,1111122' 
ADCP,ioos:station:wmo:42387:1,2015-06-10T17:13:00Z,28.2670,-88.3990,79.8,52.0,7.6,-2.6,'1111122,1111122,1111122' 
ADCP,ioos:station:wmo:42387:1,2015-06-10T18:13:00Z,28.2670,-88.3990,79.7,55.0,6.7,-2.3,'1111122,1111122,1111122' 
ADCP,ioos:station:wmo:42387:1,2015-06-10T19:13:00Z,28.2670,-88.3990,79.7,45.0,8.5,-2.5,'1111122,1111122,1111122' 
ADCP,ioos:station:wmo:42387:1,2015-06-10T20:13:00Z,28.2670,-88.3990,79.8,45.0,9.9,-2.7,'1111122,1111122,1111122' 
ADCP,ioos:station:wmo:42387:1,2015-06-10T21:13:00Z,28.2670,-88.3990,79.7,51.0,15.1,-3.7,'1111122,1111122,1111122' 
ADCP,ioos:station:wmo:42387:1,2015-06-10T22:13:00Z,28.2670,-88.3990,79.8,54.0,17.3,-3.5,'1111122,1111122,1111122' 
ADCP,ioos:station:wmo:42387:1,2015-06-10T23:13:00Z,28.2670,-88.3990,79.7,60.0,13.0,-3.1,'1111122,1111122,1111122' 
ADCP,ioos:station:wmo:42387:1,2015-06-11T00:13:00Z,28.2670,-88.3990,79.7,56.0,14.9,-4.0,'1111122,1111122,1111122' 
ADCP,ioos:station:wmo:42387:1,2015-06-11T01:13:00Z,28.2670,-88.3990,79.7,48.0,14.2,-3.6,'1111122,1111122,1111122' 
ADCP,ioos:station:wmo:42387:1,2015-06-11T02:13:00Z,28.2670,-88.3990,79.7,47.0,10.1,-3.2,'1111122,1111122,1111122' 
ADCP,ioos:station:wmo:42387:1,2015-06-11T03:13:00Z,28.2670,-88.3990,79.7,28.0,10.2,-4.0,'1111122,1111122,1111122' 
ADCP,ioos:station:wmo:42387:1,2015-06-11T04:13:00Z,28.2670,-88.3990,79.7,15.0,14.9,-5.0,'1111122,1111122,1111122' 
ADCP,ioos:station:wmo:42387:1,2015-06-11T05:13:00Z,28.2670,-88.3990,79.7,13.0,13.8,-4.5,'1111122,1111122,1111122' 
ADCP,ioos:station:wmo:42387:1,2015-06-11T05:53:00Z,28.2670,-88.3990,79.7,11.0,18.7,-5.0,'1111122,1111122,1111122' 
ADCP,ioos:station:wmo:42387:1,2015-06-11T09:13:00Z,28.2670,-88.3990,79.8,31.0,19.8,-3.4,'1111122,1111122,1111122' 
ADCP,ioos:station:wmo:42387:1,2015-06-11T10:13:00Z,28.2670,-88.3990,79.8,30.0,17.5,-3.5,'1111122,1111122,1111122' 
ADCP,ioos:station:wmo:42387:1,2015-06-11T10:33:00Z,28.2670,-88.3990,79.8,37.0,16.3,-2.9,'1111122,1111122,1111122' 
ADCP,ioos:station:wmo:42387:1,2015-06-11T12:13:00Z,28.2670,-88.3990,79.8,43.0,16.4,-3.7,'1111122,1111122,1111122' 
ADCP,ioos:station:wmo:42387:1,2015-06-11T13:13:00Z,28.2670,-88.3990,79.8,55.0,16.4,-3.0,'1111122,1111122,1111122' 
ADCP,ioos:station:wmo:42387:1,2015-06-11T14:13:00Z,28.2670,-88.3990,79.8,56.0,14.5,-2.9,'1111122,1111122,1111122' 
ADCP,ioos:station:wmo:42387:1,2015-06-11T15:13:00Z,28.2670,-88.3990,79.7,70.0,11.8,-0.8,'1111122,1111122,1111122' 
ADCP,ioos:station:wmo:42387:1,2015-06-11T16:13:00Z,28.2670,-88.3990,79.7,84.0,10.0,-0.3,'1111122,1111122,1111122' 